Location: Mentone
(34.5413°N, 85.5351°W)
Time: 23:02:27
(UTC-05:00)

Centaur AC-72 - Visible Passes

Search period start: 30 October 2014 00:00
Search period end: 08 November 2014 23:00
Orbit: 1127 x 35229 km, 19.1° (Epoch: 28 October)

Date Brightness Start Highest point End Pass type
(mag) Time Alt. Az. Time Alt. Az. Time Alt. Az.
30 Oct 9.4 22:04:09 10° W 23:34:46 26° W 02:48:29 10° W visible
31 Oct 7.2 18:46:02 10° W 20:39:54 62° SW 04:21:33 10° SSW visible
01 Nov 7.6 15:49:22 10° SW 20:51:48 64° SSE 01:36:41 10° SSE visible
02 Nov 7.1 11:59:41 10° SSW 19:14:21 41° ESE 21:32:41 10° SE visible
03 Nov 9.4 20:46:41 10° W 22:17:59 27° W 01:37:18 10° W visible
04 Nov 7.2 17:29:55 10° W 19:22:09 62° SW 03:05:39 10° SSW visible
05 Nov 7.6 14:33:30 10° SW 19:39:48 63° SSE 00:20:31 10° SSE visible
06 Nov 7.1 11:43:52 10° SSW 18:58:28 39° ESE 21:15:44 10° SE visible
07 Nov 9.4 20:29:21 10° W 22:01:11 27° W 01:25:51 10° W visible
08 Nov 9.5 17:13:49 10° W 19:04:15 63° SW 23:00:00 42° WSW visible
